DAMIA OMSJ-OPSD

Flight info

Callsign DAMIA
Flight time 2h 59m
Altitude 35000
Route IVURO DCT IVURO M677 KUSEN A791 LALDO B505 PG/N0482F360 DCT PG/N0478F370 G325 ZB Z304 RN J186 DELDA J122 SANAM
Aircraft CL60/M-SBDE1E2E3FGHIJ1J4J5J7M3RWXYZ/LB1V1D1

Departure

Time 2026-05-09 07:55
Airport Sharjah International Airport (OMSJ)

Arrival

Time 2026-05-09 10:54
Airport Skardu International Airport (OPSD)
Time Latitude Longitude Altitude Speed Heading
2026-05-09 07:16 25.31925 55.52452 106 ft 0 kts 57°
2026-05-09 07:50 25.31936 55.52476 107 ft 6 kts 65°
2026-05-09 07:50 25.31959 55.52511 107 ft 9 kts 41°
2026-05-09 07:50 25.31972 55.52531 107 ft 0 kts 93°
2026-05-09 07:51 25.31998 55.52549 107 ft 7 kts 26°
2026-05-09 07:51 25.32058 55.52590 108 ft 13 kts 33°
2026-05-09 07:51 25.32113 55.52666 108 ft 14 kts 105°
2026-05-09 07:52 25.32057 55.52767 109 ft 16 kts 123°
2026-05-09 07:52 25.31993 55.52879 110 ft 18 kts 122°
2026-05-09 07:52 25.31922 55.53001 112 ft 19 kts 122°
2026-05-09 07:52 25.31845 55.53133 114 ft 21 kts 122°
2026-05-09 07:53 25.31781 55.53285 115 ft 17 kts 96°
2026-05-09 07:53 25.31825 55.53383 115 ft 15 kts 33°
2026-05-09 07:53 25.31925 55.53450 115 ft 17 kts 32°
2026-05-09 07:53 25.32034 55.53525 114 ft 13 kts 32°
2026-05-09 07:54 25.32103 55.53491 114 ft 18 kts 302°
2026-05-09 07:54 25.32335 55.53089 110 ft 102 kts 303°
2026-05-09 07:54 25.32847 55.52200 112 ft 161 kts 302°
2026-05-09 07:54 25.33440 55.51125 686 ft 167 kts 300°
2026-05-09 07:55 25.34045 55.50026 1348 ft 171 kts 303°
2026-05-09 07:55 25.34691 55.48889 1781 ft 172 kts 303°
2026-05-09 07:55 25.35326 55.47780 2130 ft 169 kts 303°
2026-05-09 07:55 25.35986 55.46627 2389 ft 184 kts 303°
2026-05-09 07:56 25.36703 55.45375 2761 ft 195 kts 303°
2026-05-09 07:56 25.37449 55.44072 3218 ft 207 kts 303°
2026-05-09 07:56 25.38256 55.42672 3776 ft 218 kts 305°
2026-05-09 07:56 25.39330 55.41507 4364 ft 224 kts 327°
2026-05-09 07:57 25.40829 55.40976 5005 ft 232 kts 354°
2026-05-09 07:57 25.42397 55.41357 5749 ft 243 kts 23°
2026-05-09 07:57 25.43860 55.42349 6515 ft 252 kts 29°
2026-05-09 07:57 25.45341 55.43401 7266 ft 256 kts 30°
2026-05-09 07:58 25.46859 55.44472 8022 ft 260 kts 31°
2026-05-09 07:58 25.48393 55.45555 8771 ft 265 kts 32°
2026-05-09 07:58 25.49939 55.46646 9515 ft 270 kts 34°
2026-05-09 07:58 25.51330 55.48052 10268 ft 273 kts 57°
2026-05-09 07:59 25.52116 55.49942 11030 ft 272 kts 82°
2026-05-09 07:59 25.52156 55.52019 11685 ft 281 kts 104°
2026-05-09 07:59 25.51349 55.54127 11613 ft 315 kts 125°
2026-05-09 07:59 25.50101 55.56249 11809 ft 344 kts 126°
2026-05-09 08:00 25.48777 55.58530 12426 ft 355 kts 125°
2026-05-09 08:00 25.47451 55.60825 13301 ft 357 kts 125°
2026-05-09 08:00 25.46114 55.63142 14062 ft 363 kts 125°
2026-05-09 08:00 25.44745 55.65517 14807 ft 368 kts 125°
2026-05-09 08:01 25.43363 55.67925 15522 ft 373 kts 124°
2026-05-09 08:01 25.42327 55.70554 16222 ft 382 kts 108°
2026-05-09 08:01 25.41694 55.73448 16895 ft 388 kts 106°
2026-05-09 08:01 25.41063 55.76375 17544 ft 393 kts 106°
2026-05-09 08:02 25.40419 55.79353 18160 ft 399 kts 106°
2026-05-09 08:02 25.39773 55.82342 18779 ft 404 kts 106°
2026-05-09 08:02 25.39123 55.85352 19361 ft 409 kts 107°
2026-05-09 08:02 25.38459 55.88428 19926 ft 413 kts 107°
2026-05-09 08:03 25.37792 55.91521 20501 ft 418 kts 106°
2026-05-09 08:03 25.37111 55.94682 21035 ft 423 kts 107°
2026-05-09 08:03 25.36429 55.97845 21541 ft 427 kts 106°
2026-05-09 08:03 25.35732 56.01076 22045 ft 432 kts 107°
2026-05-09 08:04 25.35040 56.04284 22542 ft 436 kts 106°
2026-05-09 08:04 25.34331 56.07573 23035 ft 440 kts 106°
2026-05-09 08:04 25.33613 56.10896 23534 ft 444 kts 106°
2026-05-09 08:04 25.32905 56.14181 24012 ft 447 kts 106°
2026-05-09 08:05 25.32414 56.17633 24463 ft 454 kts 98°
2026-05-09 08:05 25.32135 56.21100 24878 ft 458 kts 97°
2026-05-09 08:05 25.31849 56.24591 25310 ft 461 kts 98°
2026-05-09 08:05 25.31557 56.28123 25746 ft 464 kts 97°
2026-05-09 08:06 25.31263 56.31676 26133 ft 467 kts 97°
2026-05-09 08:06 25.30965 56.35262 26522 ft 470 kts 97°
2026-05-09 08:06 25.30677 56.38872 26865 ft 475 kts 96°
2026-05-09 08:06 25.30540 56.42523 27229 ft 478 kts 94°
2026-05-09 08:07 25.30433 56.46181 27559 ft 482 kts 94°
2026-05-09 08:07 25.30322 56.49902 27907 ft 485 kts 93°
2026-05-09 08:07 25.30211 56.53603 28246 ft 488 kts 93°
2026-05-09 08:07 25.30094 56.57383 28579 ft 490 kts 94°
2026-05-09 08:08 25.29611 56.61089 28908 ft 488 kts 107°
2026-05-09 08:08 25.28429 56.64580 29188 ft 488 kts 115°
2026-05-09 08:08 25.27087 56.68048 29498 ft 489 kts 115°
2026-05-09 08:08 25.25771 56.71482 29886 ft 489 kts 115°
2026-05-09 08:09 25.24449 56.74933 30322 ft 487 kts 115°
2026-05-09 08:09 25.23140 56.78352 30740 ft 486 kts 115°
2026-05-09 08:09 25.21828 56.81781 31151 ft 484 kts 115°
2026-05-09 08:09 25.20531 56.85172 31554 ft 483 kts 115°
2026-05-09 08:10 25.19219 56.88601 31939 ft 481 kts 115°
2026-05-09 08:10 25.17911 56.92021 32290 ft 481 kts 115°
2026-05-09 08:10 25.16630 56.95370 32626 ft 480 kts 115°
2026-05-09 08:10 25.15334 56.98758 32968 ft 480 kts 115°
2026-05-09 08:11 25.14029 57.02169 33298 ft 479 kts 115°
2026-05-09 08:11 25.12738 57.05541 33657 ft 478 kts 115°
2026-05-09 08:11 25.11444 57.08922 33994 ft 477 kts 115°
2026-05-09 08:11 25.10163 57.12264 34304 ft 477 kts 116°
2026-05-09 08:12 25.07575 57.19013 34785 ft 479 kts 116°
2026-05-09 08:12 25.04960 57.25819 34783 ft 490 kts 116°
2026-05-09 08:13 25.02290 57.32762 34785 ft 498 kts 115°
2026-05-09 08:13 24.99575 57.39814 34783 ft 502 kts 115°
2026-05-09 08:14 24.96844 57.46899 34783 ft 501 kts 115°
2026-05-09 08:14 24.94135 57.53916 34790 ft 500 kts 115°
2026-05-09 08:15 24.91419 57.60940 34801 ft 500 kts 115°
2026-05-09 08:15 24.88690 57.67988 34800 ft 500 kts 116°
2026-05-09 08:16 24.85951 57.75050 34809 ft 499 kts 116°
2026-05-09 08:16 24.83560 57.82199 34802 ft 502 kts 106°
2026-05-09 08:17 24.82618 57.89832 34803 ft 505 kts 97°
2026-05-09 08:17 24.81974 57.97506 34805 ft 504 kts 97°
2026-05-09 08:18 24.81333 58.05150 34805 ft 504 kts 97°
2026-05-09 08:18 24.80690 58.12839 34796 ft 505 kts 97°
2026-05-09 08:19 24.80051 58.20477 34785 ft 505 kts 96°
2026-05-09 08:19 24.79409 58.28151 34783 ft 505 kts 96°
2026-05-09 08:20 24.78765 58.35821 34784 ft 505 kts 96°
2026-05-09 08:20 24.78120 58.43485 34783 ft 505 kts 96°
2026-05-09 08:21 24.77470 58.51172 34784 ft 505 kts 96°
2026-05-09 08:21 24.76822 58.58804 34782 ft 504 kts 96°
2026-05-09 08:22 24.76165 58.66497 34784 ft 504 kts 97°
2026-05-09 08:22 24.75510 58.74130 34783 ft 504 kts 97°
2026-05-09 08:23 24.74845 58.81833 34782 ft 504 kts 97°
2026-05-09 08:23 24.74183 58.89460 34785 ft 505 kts 97°
2026-05-09 08:24 24.73514 58.97139 34782 ft 505 kts 97°
2026-05-09 08:24 24.72841 59.04808 34784 ft 504 kts 97°
2026-05-09 08:25 24.72166 59.12457 34785 ft 504 kts 96°
2026-05-09 08:25 24.71489 59.20104 34782 ft 504 kts 96°
2026-05-09 08:26 24.70803 59.27803 34781 ft 504 kts 96°
2026-05-09 08:26 24.70119 59.35443 34779 ft 504 kts 96°
2026-05-09 08:27 24.69434 59.43049 34778 ft 504 kts 96°
2026-05-09 08:27 24.68738 59.50737 34772 ft 504 kts 96°
2026-05-09 08:28 24.68043 59.58365 34765 ft 504 kts 96°
2026-05-09 08:28 24.67341 59.66022 34768 ft 504 kts 97°
2026-05-09 08:29 24.66636 59.73676 34772 ft 503 kts 97°
2026-05-09 08:29 24.65931 59.81295 34778 ft 503 kts 97°
2026-05-09 08:30 24.65219 59.88936 34783 ft 503 kts 97°
2026-05-09 08:30 24.64504 59.96576 34783 ft 503 kts 97°
2026-05-09 08:31 24.63789 60.04168 34783 ft 502 kts 97°
2026-05-09 08:31 24.63065 60.11817 34782 ft 502 kts 97°
2026-05-09 08:32 24.62343 60.19395 34782 ft 502 kts 97°
2026-05-09 08:33 24.61248 60.30822 34783 ft 503 kts 97°
2026-05-09 08:33 24.60510 60.38473 34783 ft 503 kts 97°
2026-05-09 08:34 24.59771 60.46101 34782 ft 502 kts 97°
2026-05-09 08:34 24.59032 60.53673 34783 ft 502 kts 97°
2026-05-09 08:35 24.58291 60.61315 34782 ft 501 kts 96°
2026-05-09 08:35 24.58168 60.68933 34783 ft 502 kts 91°
2026-05-09 08:36 24.58180 60.76587 34783 ft 502 kts 90°
2026-05-09 08:36 24.58187 60.84238 34784 ft 502 kts 91°
2026-05-09 08:37 24.58188 60.91853 34783 ft 502 kts 90°
2026-05-09 08:37 24.58184 60.99542 34784 ft 502 kts 91°
2026-05-09 08:38 24.58176 61.07167 34784 ft 501 kts 91°
2026-05-09 08:38 24.58163 61.14832 34784 ft 501 kts 91°
2026-05-09 08:39 24.58147 61.22455 34784 ft 501 kts 91°
2026-05-09 08:39 24.58285 61.30085 34784 ft 501 kts 84°
2026-05-09 08:40 24.59740 61.37558 34790 ft 502 kts 70°
2026-05-09 08:40 24.62242 61.44680 34795 ft 502 kts 68°
2026-05-09 08:41 24.64787 61.51823 34796 ft 502 kts 68°
2026-05-09 08:41 24.67314 61.58922 34802 ft 502 kts 68°
2026-05-09 08:42 24.69843 61.66029 34798 ft 502 kts 68°
2026-05-09 08:42 24.72380 61.73169 34798 ft 501 kts 68°
2026-05-09 08:43 24.74914 61.80307 34800 ft 501 kts 68°
2026-05-09 08:43 24.77431 61.87408 34803 ft 501 kts 68°
2026-05-09 08:44 24.79955 61.94539 34802 ft 501 kts 68°
2026-05-09 08:44 24.82493 62.01722 34804 ft 502 kts 68°
2026-05-09 08:45 24.85002 62.08832 34805 ft 502 kts 68°
2026-05-09 08:45 24.87521 62.15983 34804 ft 501 kts 68°
2026-05-09 08:46 24.90027 62.23111 34804 ft 501 kts 68°
2026-05-09 08:46 24.92533 62.30250 34804 ft 501 kts 68°
2026-05-09 08:47 24.95052 62.37438 34804 ft 501 kts 68°
2026-05-09 08:47 24.97546 62.44569 34801 ft 501 kts 68°
2026-05-09 08:48 25.00044 62.51722 34794 ft 502 kts 68°
2026-05-09 08:48 25.02545 62.58895 34791 ft 502 kts 68°
2026-05-09 08:49 25.05059 62.66078 34799 ft 501 kts 67°
2026-05-09 08:49 25.08335 62.72782 34801 ft 499 kts 54°
2026-05-09 08:50 25.12885 62.78580 34806 ft 495 kts 41°
2026-05-09 08:50 25.18072 62.83570 34802 ft 495 kts 39°
2026-05-09 08:51 25.23272 62.88549 34805 ft 495 kts 39°
2026-05-09 08:51 25.28468 62.93527 34797 ft 496 kts 39°
2026-05-09 08:52 25.33663 62.98510 34794 ft 496 kts 39°
2026-05-09 08:52 25.38894 63.03531 34790 ft 496 kts 39°
2026-05-09 08:53 25.44091 63.08525 34798 ft 495 kts 39°
2026-05-09 08:53 25.49287 63.13524 34792 ft 495 kts 39°
2026-05-09 08:54 25.54474 63.18519 34803 ft 495 kts 39°
2026-05-09 08:54 25.59693 63.23550 34813 ft 495 kts 39°
2026-05-09 08:55 25.64869 63.28548 34816 ft 496 kts 39°
2026-05-09 08:55 25.70075 63.33579 34824 ft 496 kts 39°
2026-05-09 08:56 25.75246 63.38583 34827 ft 495 kts 39°
2026-05-09 08:56 25.80442 63.43616 34837 ft 495 kts 39°
2026-05-09 08:57 25.85634 63.48651 34859 ft 495 kts 39°
2026-05-09 08:57 25.90817 63.53685 34873 ft 495 kts 39°
2026-05-09 08:58 25.95989 63.58714 34903 ft 495 kts 39°
2026-05-09 08:58 26.01173 63.63760 34916 ft 495 kts 39°
2026-05-09 08:59 26.06359 63.68816 34927 ft 495 kts 39°
2026-05-09 08:59 26.11539 63.73871 34951 ft 495 kts 39°
2026-05-09 09:00 26.16726 63.78939 34948 ft 495 kts 39°
2026-05-09 09:00 26.21904 63.84005 34954 ft 495 kts 39°
2026-05-09 09:01 26.27089 63.89085 34961 ft 495 kts 39°
2026-05-09 09:01 26.32255 63.94151 34973 ft 496 kts 39°
2026-05-09 09:02 26.37420 63.99223 34990 ft 496 kts 39°
2026-05-09 09:02 26.42609 64.04327 35004 ft 495 kts 39°
2026-05-09 09:03 26.47760 64.09397 35023 ft 495 kts 39°
2026-05-09 09:03 26.52944 64.14507 35035 ft 495 kts 39°
2026-05-09 09:04 26.58094 64.19591 35039 ft 496 kts 39°
2026-05-09 09:04 26.63275 64.24711 35053 ft 496 kts 39°
2026-05-09 09:05 26.68414 64.29796 35086 ft 495 kts 39°
2026-05-09 09:05 26.73570 64.34904 35110 ft 495 kts 39°
2026-05-09 09:06 26.78721 64.40014 35122 ft 495 kts 39°
2026-05-09 09:06 26.83881 64.45139 35128 ft 495 kts 39°
2026-05-09 09:07 26.89020 64.50251 35123 ft 495 kts 39°
2026-05-09 09:07 26.94164 64.55373 35106 ft 494 kts 39°
2026-05-09 09:08 26.99298 64.60493 35122 ft 494 kts 39°
2026-05-09 09:08 27.04439 64.65625 35107 ft 494 kts 39°
2026-05-09 09:09 27.09555 64.70740 35134 ft 493 kts 39°
2026-05-09 09:09 27.14706 64.75896 35131 ft 493 kts 39°
2026-05-09 09:10 27.19830 64.81031 35145 ft 493 kts 39°
2026-05-09 09:10 27.24923 64.86143 35162 ft 493 kts 39°
2026-05-09 09:11 27.30050 64.91294 35165 ft 493 kts 39°
2026-05-09 09:11 27.35170 64.96447 35172 ft 493 kts 39°
2026-05-09 09:12 27.40262 65.01576 35174 ft 493 kts 39°
2026-05-09 09:12 27.45350 65.06709 35183 ft 493 kts 39°
2026-05-09 09:13 27.50474 65.11884 35190 ft 493 kts 39°
2026-05-09 09:13 27.55587 65.17055 35148 ft 495 kts 39°
2026-05-09 09:14 27.60696 65.22230 35146 ft 494 kts 39°
2026-05-09 09:14 27.65807 65.27413 35132 ft 494 kts 38°
2026-05-09 09:15 27.70904 65.32589 35158 ft 493 kts 39°
2026-05-09 09:15 27.76001 65.37770 35172 ft 493 kts 39°
2026-05-09 09:16 27.81069 65.42931 35169 ft 493 kts 39°
2026-05-09 09:16 27.88722 65.50734 35173 ft 494 kts 38°
2026-05-09 09:17 27.93807 65.55928 35167 ft 493 kts 38°
2026-05-09 09:17 27.98881 65.61118 35163 ft 493 kts 38°
2026-05-09 09:18 28.03968 65.66327 35173 ft 493 kts 39°
2026-05-09 09:18 28.09072 65.71561 35201 ft 493 kts 39°
2026-05-09 09:19 28.14178 65.76804 35199 ft 494 kts 39°
2026-05-09 09:19 28.19237 65.82006 35220 ft 494 kts 39°
2026-05-09 09:20 28.24325 65.87246 35247 ft 493 kts 38°
2026-05-09 09:20 28.29411 65.92490 35238 ft 494 kts 39°
2026-05-09 09:21 28.34480 65.97723 35273 ft 493 kts 39°
2026-05-09 09:21 28.39554 66.02968 35293 ft 493 kts 39°
2026-05-09 09:22 28.44632 66.08225 35312 ft 493 kts 39°
2026-05-09 09:22 28.49697 66.13476 35313 ft 493 kts 38°
2026-05-09 09:23 28.54760 66.18731 35316 ft 493 kts 38°
2026-05-09 09:23 28.59819 66.23989 35319 ft 492 kts 38°
2026-05-09 09:24 28.64853 66.29229 35341 ft 492 kts 38°
2026-05-09 09:24 28.69909 66.34499 35357 ft 492 kts 38°
2026-05-09 09:25 28.74933 66.39741 35367 ft 492 kts 38°
2026-05-09 09:25 28.80000 66.45036 35378 ft 492 kts 38°
2026-05-09 09:26 28.85032 66.50302 35379 ft 491 kts 38°
2026-05-09 09:26 28.90057 66.55568 35391 ft 491 kts 38°
2026-05-09 09:27 28.95063 66.60821 35419 ft 490 kts 38°
2026-05-09 09:27 29.00091 66.66103 35435 ft 491 kts 38°
2026-05-09 09:28 29.05130 66.71406 35456 ft 491 kts 38°
2026-05-09 09:28 29.10175 66.76721 35458 ft 491 kts 38°
2026-05-09 09:29 29.15205 66.82030 35439 ft 490 kts 38°
2026-05-09 09:29 29.20197 66.87303 35407 ft 490 kts 38°
2026-05-09 09:30 29.25196 66.92593 35378 ft 490 kts 38°
2026-05-09 09:30 29.30198 66.97893 35361 ft 490 kts 38°
2026-05-09 09:31 29.35208 67.03208 35360 ft 490 kts 38°
2026-05-09 09:32 29.42694 67.11164 35327 ft 489 kts 38°
2026-05-09 09:32 29.47683 67.16476 35245 ft 489 kts 38°
2026-05-09 09:33 29.52671 67.21794 35225 ft 488 kts 38°
2026-05-09 09:33 29.57636 67.27093 35202 ft 488 kts 38°
2026-05-09 09:34 29.62619 67.32420 35184 ft 488 kts 38°
2026-05-09 09:34 29.67571 67.37722 35170 ft 489 kts 38°
2026-05-09 09:36 29.84309 67.57218 35024 ft 491 kts 41°
2026-05-09 09:36 29.86643 67.60104 35016 ft 490 kts 41°
2026-05-09 09:37 29.91282 67.65839 34994 ft 490 kts 42°
2026-05-09 09:37 29.95954 67.71619 34993 ft 490 kts 41°
2026-05-09 09:38 30.00586 67.77353 34967 ft 491 kts 41°
2026-05-09 09:38 30.05223 67.83101 35072 ft 489 kts 41°
2026-05-09 09:39 30.09864 67.88847 35096 ft 489 kts 41°
2026-05-09 09:39 30.14565 67.94620 35161 ft 489 kts 41°
2026-05-09 09:40 30.19221 68.00344 35214 ft 489 kts 41°
2026-05-09 09:40 30.23875 68.06073 35257 ft 489 kts 41°
2026-05-09 09:41 30.28507 68.11783 35269 ft 489 kts 41°
2026-05-09 09:41 30.33151 68.17514 35263 ft 488 kts 41°
2026-05-09 09:42 30.37775 68.23227 35279 ft 488 kts 41°
2026-05-09 09:42 30.42420 68.28976 35280 ft 488 kts 41°
2026-05-09 09:43 30.47056 68.34720 35280 ft 489 kts 41°
2026-05-09 09:43 30.51668 68.40444 35288 ft 488 kts 40°
2026-05-09 09:44 30.56303 68.46205 35264 ft 488 kts 41°
2026-05-09 09:44 30.60925 68.51959 35266 ft 486 kts 41°
2026-05-09 09:45 30.65531 68.57700 35261 ft 486 kts 41°
2026-05-09 09:45 30.70146 68.63461 35240 ft 486 kts 40°
2026-05-09 09:46 30.74729 68.69190 35235 ft 486 kts 41°
2026-05-09 09:46 30.79326 68.74946 35243 ft 487 kts 41°
2026-05-09 09:47 30.83932 68.80722 35253 ft 487 kts 41°
2026-05-09 09:47 30.88523 68.86488 35266 ft 486 kts 40°
2026-05-09 09:48 30.93098 68.92242 35277 ft 486 kts 41°
2026-05-09 09:48 30.97708 68.98048 35251 ft 487 kts 41°
2026-05-09 09:49 31.02299 69.03839 35237 ft 486 kts 40°
2026-05-09 09:49 31.06853 69.09592 35244 ft 485 kts 40°
2026-05-09 09:50 31.11433 69.15388 35248 ft 486 kts 40°
2026-05-09 09:50 31.16027 69.21210 35233 ft 485 kts 40°
2026-05-09 09:51 31.20597 69.27010 35221 ft 485 kts 40°
2026-05-09 09:51 31.25133 69.32775 35245 ft 485 kts 40°
2026-05-09 09:52 31.29707 69.38598 35254 ft 485 kts 40°
2026-05-09 09:52 31.34263 69.44408 35250 ft 484 kts 40°
2026-05-09 09:53 31.38446 69.50658 35230 ft 491 kts 47°
2026-05-09 09:53 31.42418 69.57191 35223 ft 491 kts 47°
2026-05-09 09:54 31.46380 69.63704 35241 ft 491 kts 47°
2026-05-09 09:54 31.50344 69.70226 35256 ft 491 kts 48°
2026-05-09 09:55 31.54280 69.76708 35235 ft 491 kts 48°
2026-05-09 09:55 31.58233 69.83224 35201 ft 490 kts 47°
2026-05-09 09:56 31.62279 69.89706 35158 ft 490 kts 47°
2026-05-09 09:56 31.66309 69.96143 35118 ft 490 kts 47°
2026-05-09 09:57 31.70321 70.02566 35071 ft 490 kts 47°
2026-05-09 09:57 31.74354 70.09030 34968 ft 490 kts 46°
2026-05-09 09:58 31.78349 70.15446 34920 ft 489 kts 46°
2026-05-09 09:58 31.82371 70.21914 34851 ft 488 kts 46°
2026-05-09 09:59 31.86360 70.28342 34837 ft 488 kts 46°
2026-05-09 09:59 31.90357 70.34792 34818 ft 488 kts 46°
2026-05-09 10:00 31.94351 70.41248 34799 ft 488 kts 46°
2026-05-09 10:00 31.98338 70.47704 34809 ft 488 kts 46°
2026-05-09 10:01 32.02322 70.54165 34794 ft 488 kts 46°
2026-05-09 10:01 32.06291 70.60614 34785 ft 488 kts 46°
2026-05-09 10:02 32.10279 70.67107 34789 ft 486 kts 47°
2026-05-09 10:02 32.14289 70.73643 34788 ft 487 kts 47°
2026-05-09 10:03 32.18255 70.80121 34789 ft 486 kts 47°
2026-05-09 10:03 32.22191 70.86560 34807 ft 485 kts 46°
2026-05-09 10:04 32.26120 70.92999 34819 ft 486 kts 47°
2026-05-09 10:04 32.30075 70.99490 34827 ft 485 kts 46°
2026-05-09 10:05 32.33998 71.05943 34826 ft 484 kts 46°
2026-05-09 10:05 32.37932 71.12421 34809 ft 484 kts 46°
2026-05-09 10:06 32.41856 71.18897 34793 ft 483 kts 46°
2026-05-09 10:06 32.45770 71.25365 34795 ft 483 kts 46°
2026-05-09 10:07 32.49685 71.31849 34789 ft 483 kts 46°
2026-05-09 10:07 32.53578 71.38305 34789 ft 483 kts 46°
2026-05-09 10:08 32.57480 71.44787 34787 ft 483 kts 46°
2026-05-09 10:08 32.61398 71.51308 34776 ft 482 kts 46°
2026-05-09 10:09 32.65255 71.57739 34806 ft 481 kts 46°
2026-05-09 10:09 32.69157 71.64255 34833 ft 482 kts 46°
2026-05-09 10:10 32.73040 71.70753 34866 ft 481 kts 47°
2026-05-09 10:10 32.76891 71.77207 34887 ft 482 kts 47°
2026-05-09 10:11 32.80783 71.83742 34856 ft 482 kts 46°
2026-05-09 10:11 32.84638 71.90225 34841 ft 481 kts 46°
2026-05-09 10:12 32.88508 71.96747 34827 ft 481 kts 46°
2026-05-09 10:12 32.92452 72.03154 34823 ft 479 kts 45°
2026-05-09 10:13 32.96443 72.09467 34822 ft 479 kts 44°
2026-05-09 10:13 33.00716 72.15508 34822 ft 466 kts 35°
2026-05-09 10:14 33.05761 72.20079 34834 ft 452 kts 23°
2026-05-09 10:14 33.11155 72.23986 34839 ft 453 kts 23°
2026-05-09 10:15 33.16563 72.27914 34837 ft 452 kts 23°
2026-05-09 10:15 33.21940 72.31825 34837 ft 451 kts 23°
2026-05-09 10:16 33.27319 72.35746 34840 ft 451 kts 23°
2026-05-09 10:16 33.32676 72.39655 34849 ft 451 kts 23°
2026-05-09 10:17 33.38002 72.43550 34855 ft 450 kts 23°
2026-05-09 10:17 33.43355 72.47469 34860 ft 451 kts 23°
2026-05-09 10:18 33.48703 72.51390 34870 ft 451 kts 23°
2026-05-09 10:18 33.54052 72.55320 34868 ft 451 kts 23°
2026-05-09 10:19 33.59396 72.59250 34865 ft 451 kts 23°
2026-05-09 10:19 33.64746 72.63191 34868 ft 452 kts 23°
2026-05-09 10:20 33.70119 72.67158 34876 ft 451 kts 24°
2026-05-09 10:20 33.75478 72.71119 34875 ft 450 kts 24°
2026-05-09 10:21 33.80818 72.75070 34896 ft 450 kts 24°
2026-05-09 10:21 33.86137 72.79012 34923 ft 451 kts 24°
2026-05-09 10:22 33.91475 72.82975 34952 ft 451 kts 24°
2026-05-09 10:22 33.96819 72.86948 34973 ft 451 kts 24°
2026-05-09 10:23 34.02144 72.90913 34980 ft 451 kts 23°
2026-05-09 10:23 34.07499 72.94906 34988 ft 452 kts 24°
2026-05-09 10:24 34.12828 72.98887 35002 ft 451 kts 24°
2026-05-09 10:24 34.18176 73.02886 35010 ft 450 kts 24°
2026-05-09 10:25 34.23525 73.06894 35029 ft 451 kts 24°
2026-05-09 10:25 34.28853 73.10893 35113 ft 449 kts 24°
2026-05-09 10:26 34.34158 73.14877 35134 ft 451 kts 24°
2026-05-09 10:26 34.39496 73.18895 35171 ft 451 kts 23°
2026-05-09 10:27 34.44815 73.22905 35193 ft 451 kts 24°
2026-05-09 10:27 34.50144 73.26928 35210 ft 451 kts 24°
2026-05-09 10:28 34.55443 73.30934 35324 ft 450 kts 23°
2026-05-09 10:28 34.60756 73.34957 35415 ft 451 kts 23°
2026-05-09 10:29 34.66097 73.39007 35382 ft 452 kts 24°
2026-05-09 10:29 34.68745 73.41019 35491 ft 450 kts 23°
2026-05-09 10:29 34.71416 73.43049 35525 ft 450 kts 23°
2026-05-09 10:30 34.76726 73.47088 35575 ft 451 kts 23°
2026-05-09 10:30 34.81862 73.51568 35622 ft 458 kts 29°
2026-05-09 10:31 34.86909 73.56329 35698 ft 458 kts 29°
2026-05-09 10:31 34.91930 73.61066 35712 ft 458 kts 29°
2026-05-09 10:32 34.96896 73.65755 35691 ft 459 kts 30°
2026-05-09 10:32 35.01937 73.70523 35773 ft 457 kts 29°
2026-05-09 10:33 35.06962 73.75279 35784 ft 458 kts 30°
2026-05-09 10:33 35.11998 73.80051 35790 ft 458 kts 30°
2026-05-09 10:34 35.17044 73.84836 35760 ft 457 kts 30°
2026-05-09 10:34 35.24603 73.92021 35807 ft 457 kts 30°
2026-05-09 10:35 35.29637 73.96816 35815 ft 457 kts 30°
2026-05-09 10:35 35.34622 74.01579 35834 ft 457 kts 30°
2026-05-09 10:36 35.39523 74.06675 35821 ft 466 kts 37°
2026-05-09 10:36 35.43567 74.13055 35831 ft 483 kts 51°
2026-05-09 10:37 35.46744 74.20390 35856 ft 488 kts 55°
2026-05-09 10:37 35.49838 74.27783 35779 ft 484 kts 54°
2026-05-09 10:38 35.51355 74.31410 35416 ft 476 kts 55°
2026-05-09 10:38 35.52865 74.35022 34710 ft 471 kts 55°
2026-05-09 10:38 35.54350 74.38577 34157 ft 464 kts 56°
2026-05-09 10:38 35.55809 74.42069 33637 ft 457 kts 56°
2026-05-09 10:39 35.57225 74.45467 33128 ft 450 kts 56°
2026-05-09 10:39 35.58652 74.48888 32550 ft 446 kts 56°
2026-05-09 10:39 35.60056 74.52257 31989 ft 441 kts 57°
2026-05-09 10:39 35.61438 74.55577 31449 ft 436 kts 57°
2026-05-09 10:40 35.62792 74.58826 30885 ft 431 kts 57°
2026-05-09 10:40 35.64221 74.62041 30452 ft 421 kts 56°
2026-05-09 10:40 35.65571 74.65015 30346 ft 407 kts 56°
2026-05-09 10:40 35.66980 74.68120 30065 ft 397 kts 56°
2026-05-09 10:41 35.68317 74.71071 29786 ft 388 kts 56°
2026-05-09 10:41 35.69617 74.73958 29512 ft 381 kts 58°
2026-05-09 10:41 35.70551 74.76996 29238 ft 388 kts 73°
2026-05-09 10:41 35.70814 74.80304 28934 ft 389 kts 88°
2026-05-09 10:42 35.70365 74.83579 28429 ft 393 kts 103°
2026-05-09 10:42 35.69587 74.86773 27921 ft 392 kts 103°
2026-05-09 10:42 35.68805 74.89979 27401 ft 389 kts 103°
2026-05-09 10:42 35.68046 74.93098 26998 ft 378 kts 104°
2026-05-09 10:43 35.67310 74.96112 26961 ft 358 kts 103°
2026-05-09 10:43 35.66616 74.98951 26787 ft 341 kts 103°
2026-05-09 10:43 35.65938 75.01735 26171 ft 336 kts 103°
2026-05-09 10:43 35.65279 75.04446 25490 ft 334 kts 103°
2026-05-09 10:44 35.64616 75.07166 24844 ft 329 kts 103°
2026-05-09 10:44 35.63974 75.09802 24237 ft 325 kts 103°
2026-05-09 10:44 35.63329 75.12449 23634 ft 321 kts 104°
2026-05-09 10:44 35.62543 75.14975 23048 ft 319 kts 117°
2026-05-09 10:45 35.61306 75.17243 22468 ft 317 kts 122°
2026-05-09 10:46 35.56340 75.25907 20206 ft 304 kts 123°
2026-05-09 10:46 35.55135 75.28034 19603 ft 300 kts 123°
2026-05-09 10:46 35.53968 75.30113 18946 ft 293 kts 123°
2026-05-09 10:46 35.52817 75.32173 18336 ft 285 kts 123°
2026-05-09 10:47 35.51704 75.34175 17716 ft 278 kts 123°
2026-05-09 10:47 35.50608 75.36137 17105 ft 273 kts 123°
2026-05-09 10:47 35.49378 75.37940 16481 ft 269 kts 132°
2026-05-09 10:47 35.48027 75.39516 15938 ft 263 kts 138°
2026-05-09 10:48 35.46623 75.40926 15424 ft 256 kts 140°
2026-05-09 10:48 35.45271 75.42247 14854 ft 240 kts 140°
2026-05-09 10:48 35.44012 75.43469 14355 ft 225 kts 140°
2026-05-09 10:48 35.42798 75.44658 13872 ft 223 kts 139°
2026-05-09 10:49 35.41603 75.45830 13362 ft 222 kts 140°
2026-05-09 10:49 35.40404 75.47000 12861 ft 216 kts 139°
2026-05-09 10:49 35.39465 75.48384 12374 ft 201 kts 119°
2026-05-09 10:49 35.38860 75.49878 11998 ft 188 kts 113°
2026-05-09 10:50 35.38320 75.51308 11615 ft 175 kts 113°
2026-05-09 10:50 35.37822 75.52647 11236 ft 168 kts 112°
2026-05-09 10:50 35.37336 75.53958 10876 ft 163 kts 112°
2026-05-09 10:50 35.36870 75.55224 10639 ft 161 kts 112°
2026-05-09 10:51 35.36404 75.56486 10428 ft 160 kts 113°
2026-05-09 10:51 35.35945 75.57732 10228 ft 160 kts 113°
2026-05-09 10:51 35.35480 75.58980 10018 ft 159 kts 113°
2026-05-09 10:51 35.34911 75.60158 9814 ft 161 kts 132°
2026-05-09 10:52 35.33905 75.60831 9547 ft 163 kts 163°
2026-05-09 10:52 35.32786 75.60975 9304 ft 164 kts 181°
2026-05-09 10:52 35.31666 75.60636 9093 ft 165 kts 204°
2026-05-09 10:52 35.30759 75.59789 8901 ft 165 kts 233°
2026-05-09 10:53 35.30432 75.58483 8773 ft 162 kts 277°
2026-05-09 10:53 35.30705 75.57116 8513 ft 163 kts 291°
2026-05-09 10:53 35.31297 75.55941 8115 ft 160 kts 316°
2026-05-09 10:53 35.32205 75.55170 7751 ft 156 kts 329°
2026-05-09 10:54 35.33109 75.54455 7637 ft 140 kts 328°
2026-05-09 10:54 35.33773 75.53929 7630 ft 84 kts 327°
2026-05-09 10:54 35.34089 75.53669 7616 ft 14 kts 333°
2026-05-09 10:54 35.34134 75.53648 7615 ft 3 kts 235°
2026-05-09 10:55 35.34076 75.53685 7617 ft 14 kts 143°
2026-05-09 10:55 35.33983 75.53763 7620 ft 18 kts 147°
2026-05-09 10:55 35.33848 75.53873 7626 ft 22 kts 145°
2026-05-09 10:55 35.33714 75.53976 7632 ft 25 kts 147°
2026-05-09 10:56 35.33542 75.54112 7636 ft 32 kts 146°
2026-05-09 10:56 35.33337 75.54275 7638 ft 22 kts 146°
2026-05-09 10:56 35.33242 75.54336 7637 ft 9 kts 188°
2026-05-09 10:56 35.33188 75.54256 7638 ft 15 kts 235°
2026-05-09 10:57 35.33126 75.54138 7639 ft 8 kts 236°
2026-05-09 10:57 35.33085 75.54144 7639 ft 7 kts 150°
2026-05-09 10:57 35.33070 75.54156 7639 ft 1 kts 147°
2026-05-09 10:57 35.33067 75.54157 7638 ft 0 kts 147°